This demonstration page uses our WeatherBlox Daily Observations layout. Learn more.

Left ArrowRight Arrow

40.92945, -100.16068

Hourly Observations for September 28, 2022

Temp ( °F °C ) Dew Point ( °F °C ) Humidity (%) Winds ( mph kmh ) Pressure ( in mb ) Visibility ( mi km ) Precip ( " mm )
12:15 am 00:15 Clear 54 12.1 40 4.6 60 60 E 6 9 30.31 1026 10 16 0.00 0.00
12:35 am 00:35 Clear 55 12.7 40 4.5 57 57 E 7 11 30.32 1027 10 16 0.00 0.00
12:55 am 00:55 Clear 54 12.4 40 4.5 58 58 E 6 9 30.32 1027 10 16 0.00 0.00
1:15 am 01:15 Clear 53 11.5 40 4.5 62 62 E 5 7 30.33 1027 10 16 0.00 0.00
1:35 am 01:35 Clear 51 10.4 41 5.1 70 70 E 3 6 30.35 1028 10 16 0.00 0.00
1:55 am 01:55 Clear 49 9.6 41 5 73 73 E 5 7 30.34 1028 10 16 0.00 0.00
2:15 am 02:15 Clear 49 9.5 41 5 73 73 E 5 7 30.35 1028 10 16 0.00 0.00
2:35 am 02:35 Clear 49 9.7 40 4.6 70 70 ESE 5 7 30.36 1028 10 16 0.00 0.00
2:55 am 02:55 Clear 50 10.1 41 5 71 71 E 6 9 30.35 1028 10 16 0.00 0.00
3:15 am 03:15 Clear 49 9.7 41 4.9 72 72 E 5 7 30.36 1028 10 16 0.00 0.00
3:35 am 03:35 Clear 50 9.8 41 5.1 73 73 E 5 7 30.35 1028 10 16 0.00 0.00
3:55 am 03:55 Clear 48 8.8 41 5 77 77 ESE 3 6 30.36 1028 10 16 0.00 0.00
4:15 am 04:15 Clear 49 9.6 42 5.3 75 75 ESE 3 6 30.36 1028 10 16 0.00 0.00
4:35 am 04:35 Clear 47 8.3 41 4.9 79 79 Calm 30.38 1029 10 16 0.00 0.00
4:55 am 04:55 Clear 44 6.8 41 4.9 88 88 Calm 30.39 1029 10 16 0.00 0.00
5:15 am 05:15 Clear 44 6.6 41 4.9 89 89 E 3 6 30.39 1029 10 16 0.00 0.00
5:35 am 05:35 Clear 45 7 41 5.1 88 88 E 5 7 30.39 1029 10 16 0.00 0.00
5:55 am 05:55 Clear 44 6.7 41 5 89 89 ENE 3 6 30.39 1029 10 16 0.00 0.00
6:15 am 06:15 Clear 44 6.7 41 4.8 88 88 Calm 30.39 1029 10 16 0.00 0.00
6:35 am 06:35 Clear 42 5.8 40 4.3 90 90 Calm 30.41 1030 10 16 0.00 0.00
6:55 am 06:55 Clear 42 5.6 39 4 89 89 Calm 30.41 1030 10 16 0.00 0.00
7:15 am 07:15 Clear 41 5.1 40 4.3 95 95 E 6 9 30.42 1030 10 16 0.00 0.00
7:35 am 07:35 Sunny 42 5.6 40 4.3 91 91 Calm 30.41 1030 10 16 0.00 0.00
7:55 am 07:55 Sunny 43 6.1 40 4.7 91 91 Calm 30.42 1030 10 16 0.00 0.00
8:15 am 08:15 Sunny 44 6.7 41 5.1 90 90 Calm 30.42 1030 10 16 0.00 0.00
8:35 am 08:35 Sunny 49 9.2 44 6.5 83 83 ESE 3 6 30.40 1029 10 16 0.00 0.00
8:55 am 08:55 Sunny 51 10.7 43 5.9 72 72 SSE 5 7 30.38 1029 10 16 0.00 0.00
9:15 am 09:15 Sunny 53 11.9 43 6 67 67 SE 8 13 30.38 1029 10 16 0.00 0.00
9:35 am 09:35 Sunny 55 12.7 43 6.1 64 64 SE 7 11 30.39 1029 10 16 0.00 0.00
9:55 am 09:55 Sunny 57 13.9 44 6.4 61 61 SSE 10 17 30.38 1029 10 16 0.00 0.00
10:15 am 10:15 Sunny 58 14.6 44 6.7 59 59 SSE 10 17 30.37 1028 10 16 0.00 0.00
10:35 am 10:35 Sunny 62 16.4 43 6 50 50 SE 13 20 30.35 1028 10 16 0.00 0.00
10:55 am 10:55 Sunny 64 17.5 44 6.4 48 48 SSE 13 20 30.34 1028 10 16 0.00 0.00
11:15 am 11:15 Sunny 66 18.7 43 6 43 43 SE 9 15 30.33 1027 10 16 0.00 0.00
11:35 am 11:35 Sunny 68 19.9 42 5.5 39 39 SSE 17 28 30.32 1027 10 16 0.00 0.00
11:55 am 11:55 Sunny 69 20.6 41 5.2 36 36 SSE 17 28 30.30 1026 10 16 0.00 0.00
12:15 pm 12:15 Sunny 70 21.1 41 5.2 35 35 SSE 17 28 30.30 1026 10 16 0.00 0.00
12:35 pm 12:35 Sunny 71 21.8 42 5.5 35 35 SSE 16 26 30.29 1026 10 16 0.00 0.00
12:55 pm 12:55 Sunny 72 22 42 5.5 34 34 SSE 14 22 30.27 1025 10 16 0.00 0.00
1:15 pm 13:15 Sunny 73 22.6 43 5.9 34 34 SSE 14 22 30.26 1025 10 16 0.00 0.00
1:35 pm 13:35 Sunny 73 22.9 43 6.1 34 34 SSE 16 26 30.26 1025 10 16 0.00 0.00
1:55 pm 13:55 Sunny 74 23.1 43 6.3 34 34 SSE 14 22 30.24 1024 10 16 0.00 0.00
2:15 pm 14:15 Sunny 75 24.1 43 6.3 32 32 S 15 24 30.23 1024 10 16 0.00 0.00
2:35 pm 14:35 Sunny 75 23.7 43 6.1 32 32 SSE 15 24 30.22 1023 10 16 0.00 0.00
2:55 pm 14:55 Sunny 74 23.6 43 6.1 32 32 SE 14 22 30.21 1023 10 16 0.00 0.00
3:15 pm 15:15 Sunny 76 24.3 44 6.5 32 32 SSE 18 30 30.19 1022 10 16 0.00 0.00
3:35 pm 15:35 Sunny 76 24.2 44 6.4 32 32 SE 13 20 30.19 1022 10 16 0.00 0.00
3:55 pm 15:55 Sunny 76 24.4 44 6.6 32 32 SE 12 19 30.18 1022 10 16 0.00 0.00
4:15 pm 16:15 Sunny 76 24.3 44 6.5 32 32 SSE 15 24 30.18 1022 10 16 0.00 0.00
4:35 pm 16:35 Sunny 77 24.8 44 6.7 31 31 SSE 15 24 30.16 1021 10 16 0.00 0.00
4:55 pm 16:55 Sunny 76 24.5 44 6.8 32 32 SSE 14 22 30.16 1021 10 16 0.00 0.00
5:15 pm 17:15 Sunny 76 24.4 44 6.8 32 32 SE 13 20 30.15 1021 10 16 0.00 0.00
5:35 pm 17:35 Sunny 75 24.1 44 6.8 33 33 SE 16 26 30.16 1021 10 16 0.00 0.00
5:55 pm 17:55 Sunny 74 23.5 44 6.8 34 34 SSE 17 28 30.16 1021 10 16 0.00 0.00
6:15 pm 18:15 Sunny 74 23.1 44 6.9 35 35 SSE 14 22 30.17 1022 10 16 0.00 0.00
6:35 pm 18:35 Sunny 73 22.5 45 7.1 37 37 SSE 15 24 30.17 1022 10 16 0.00 0.00
6:55 pm 18:55 Sunny 71 21.7 45 7.1 39 39 SE 13 20 30.18 1022 10 16 0.00 0.00
7:15 pm 19:15 Sunny 70 20.9 45 7 41 41 SE 12 19 30.18 1022 10 16 0.00 0.00
7:35 pm 19:35 Clear 68 20.2 45 7 42 42 SE 10 17 30.18 1022 10 16 0.00 0.00
7:55 pm 19:55 Clear 67 19.2 45 7.1 45 45 SSE 10 17 30.20 1023 10 16 0.00 0.00
8:15 pm 20:15 Clear 65 18.2 45 7.2 49 49 SSE 9 15 30.22 1023 10 16 0.00 0.00
8:35 pm 20:35 Clear 63 17.4 45 7.2 51 51 SSE 8 13 30.22 1023 10 16 0.00 0.00
8:55 pm 20:55 Clear 62 16.5 45 7.3 54 54 SSE 7 11 30.23 1024 10 16 0.00 0.00
9:15 pm 21:15 Clear 62 16.7 45 7.2 53 53 SE 9 15 30.24 1024 10 16 0.00 0.00
9:35 pm 21:35 Clear 61 16 45 7.1 55 55 SSE 10 17 30.26 1025 10 16 0.00 0.00
9:55 pm 21:55 Clear 61 15.9 45 7 55 55 SSE 9 15 30.26 1025 10 16 0.00 0.00
10:15 pm 22:15 Clear 60 15.5 44 6.8 56 56 SSE 8 13 30.26 1025 10 16 0.00 0.00
10:35 pm 22:35 Clear 60 15.5 44 6.6 55 55 SE 8 13 30.26 1025 10 16 0.00 0.00
10:55 pm 22:55 Clear 59 15.1 44 6.5 56 56 SE 8 13 30.26 1025 10 16 0.00 0.00
11:15 pm 23:15 Clear 58 14.5 44 6.5 59 59 SE 9 15 30.27 1025 10 16 0.00 0.00
11:35 pm 23:35 Clear 58 14.3 43 6.2 58 58 SE 9 15 30.27 1025 10 16 0.00 0.00
11:55 pm 23:55 Clear 57 14.1 43 6.1 59 59 SE 10 17 30.26 1025 10 16 0.00 0.00

Powered by AerisWeather